DateTimeUTC,F1_A11,F1_S11,BsB_S11,BsG_S11,BsR_S11,BbsB_S11,BbsG_S11,BbsR_S11,BaB_A11,BaG_A11,BaR_A11,Tu_S11,T_S11,Uu_S11,U_S11,P_S11,T1_A11
2021-12-17T21:00:00Z,00000200,21000000,,,,,,,0000.01,-000.45,-000.05,18.4,25.7,,00.0,0653.5,31.0
2021-12-17T21:01:00Z,00000200,21000000,,,,,,,-000.02,0000.04,-000.02,18.4,25.7,,00.0,0653.5,31.0
2021-12-17T21:02:00Z,00000200,21000000,,,,,,,-000.11,0000.04,-000.07,18.4,25.7,,00.0,0653.5,31.0
2021-12-17T21:03:00Z,00000200,61000000,,,,,,,-000.41,-000.09,-000.34,18.4,25.7,,00.0,0653.5,31.0
2021-12-17T21:04:00Z,00000200,41000000,0000.56,0000.08,0000.06,0000.96,0000.01,-000.07,-000.06,-000.32,-000.02,18.6,25.6,,00.0,0654.4,31.0
2021-12-17T21:05:00Z,00000200,01000000,-000.39,0000.01,0000.37,0000.36,-000.21,-000.02,-000.20,-000.20,-000.33,18.6,25.5,,00.0,0654.5,31.0
2021-12-17T21:06:00Z,00000200,01000000,0000.20,0000.08,0000.37,0000.60,-000.09,0000.31,0000.20,0000.30,0000.38,18.6,25.4,,00.0,0654.5,31.0
2021-12-17T21:07:00Z,00000200,01000000,0000.54,0000.19,0000.44,0000.14,0000.09,0000.21,0000.07,-000.22,-000.23,18.5,25.4,,00.0,0654.5,31.0
2021-12-17T21:08:00Z,00000200,01000000,-000.25,0000.33,-000.14,0000.56,-000.15,-000.04,0000.27,0000.18,0000.36,18.6,25.4,,00.0,0654.5,31.0
2021-12-17T21:09:00Z,00000200,01000000,-000.01,0000.10,-000.08,-000.16,0000.36,0000.05,-000.15,0000.18,0000.03,18.6,25.4,,00.0,0654.5,31.0
2021-12-17T21:10:00Z,00000200,01000000,-000.45,0000.21,-000.07,-000.29,-000.15,-000.20,-000.05,0000.07,0000.05,18.6,25.4,,00.0,0654.5,31.0
2021-12-17T21:11:00Z,00000200,01000000,0000.70,-000.28,-000.35,-000.40,-000.04,-000.06,-000.02,-000.26,-000.04,18.6,25.4,,00.0,0654.6,31.0
2021-12-17T21:12:00Z,00000200,01000000,-000.44,0000.19,-000.25,0000.85,0000.06,0000.20,0000.24,-000.00,-000.01,18.6,25.4,,00.0,0654.6,31.0
2021-12-17T21:13:00Z,00000200,01000000,-000.01,0000.39,-000.08,0000.39,0000.18,0000.18,-000.13,0000.27,0000.29,18.7,25.4,,00.0,0654.6,31.0
2021-12-17T21:14:00Z,00000200,01000000,0000.58,-000.15,0000.05,0000.09,-000.09,0000.16,0000.06,0000.08,-000.05,18.7,25.4,,00.0,0654.6,31.0
2021-12-17T21:15:00Z,00000200,01000000,0000.71,0000.19,0000.02,0000.83,0000.07,0000.20,-000.06,-000.03,-000.29,18.7,25.4,,00.0,0654.7,31.0
2021-12-17T21:16:00Z,00000200,01000000,0000.69,0000.29,0000.23,0000.21,-000.42,0000.10,-000.18,-000.19,0000.44,18.7,25.4,,00.0,0654.7,31.0
2021-12-17T21:17:00Z,00000200,01000000,0000.69,-000.04,0000.50,0000.17,0000.28,0000.41,0000.12,0000.22,-000.39,18.8,25.5,,00.0,0654.6,31.0
2021-12-17T21:18:00Z,00000200,01000000,-000.17,0000.28,0000.19,0000.09,-000.22,-000.10,-000.00,-000.10,0000.12,18.8,25.4,,00.0,0654.7,31.0
2021-12-17T21:19:00Z,00000200,01000000,0000.26,-000.19,0000.28,0000.22,0000.09,0000.05,0000.04,-000.34,-000.50,18.8,25.4,,00.0,0654.7,31.0
2021-12-17T21:20:00Z,00000200,01000000,0000.12,0000.22,0000.48,-000.04,-000.06,0000.13,-000.19,-000.18,0000.23,18.7,25.4,,00.0,0654.7,31.0
2021-12-17T21:21:00Z,00000200,01000000,-000.02,0000.22,0000.03,-000.19,0000.01,-000.33,0000.09,0000.18,-000.12,18.6,25.4,,00.0,0654.8,31.0
2021-12-17T21:22:00Z,00000200,01000000,-000.15,0000.00,0000.24,0000.71,-000.12,0000.11,-000.20,-000.00,0000.10,18.6,25.4,,00.0,0654.8,31.0
2021-12-17T21:23:00Z,00000200,01000000,0000.34,-000.09,0000.30,0000.93,0000.40,0000.15,0000.21,-000.03,-000.13,18.6,25.4,,00.0,0654.7,31.0
2021-12-17T21:24:00Z,00000200,01000000,0000.22,-000.05,0000.08,0000.08,0000.22,-000.45,-000.12,-000.00,0000.36,18.6,25.4,,00.0,0654.8,31.0
2021-12-17T21:25:00Z,00000200,01000000,0000.59,0000.27,0000.02,0000.38,-000.06,-000.09,0000.05,-000.12,0000.09,18.6,25.4,,00.0,0654.8,31.0
2021-12-17T21:26:00Z,00000200,01000000,0000.43,-000.18,0000.17,0000.03,-000.17,-000.07,0000.28,0000.21,0000.13,18.7,25.4,,00.0,0654.8,31.0
2021-12-17T21:27:00Z,00000200,01000000,0000.08,-000.09,0000.28,0000.29,0000.06,0000.13,0000.01,0000.15,0000.13,18.7,25.4,,00.0,0654.8,31.0
2021-12-17T21:28:00Z,00000200,01000000,0000.22,0000.03,-000.01,-000.19,-000.04,-000.52,-000.01,0000.03,-000.49,18.7,25.4,,00.0,0654.8,31.0
2021-12-17T21:29:00Z,00000200,01000000,0000.35,0000.08,0000.12,-000.47,-000.18,0000.01,0000.14,0000.19,0000.54,18.7,25.4,,00.0,0654.8,31.0
2021-12-17T21:30:00Z,00000200,01000000,-000.19,0000.17,0000.02,-000.40,0000.08,-000.03,-000.20,0000.09,-000.33,18.8,25.4,,00.0,0654.8,31.0
2021-12-17T21:31:00Z,00000200,01000000,0000.35,0000.21,-000.10,-000.43,-000.15,-000.12,0000.17,-000.10,0000.08,18.8,25.4,,00.0,0654.8,31.0
2021-12-17T21:32:00Z,00000200,01000000,-000.68,0000.29,0000.25,0000.50,-000.14,-000.09,-000.10,-000.11,0000.00,18.8,25.4,,00.0,0654.8,31.0
2021-12-17T21:33:00Z,00000200,01000000,-000.47,-000.02,0000.35,-000.18,-000.19,-000.13,-000.13,0000.12,0000.03,18.8,25.4,,00.0,0654.9,31.0
2021-12-17T21:34:00Z,00000200,01000000,0000.20,0000.32,0000.07,0000.34,0000.00,-000.02,0000.31,-000.01,0000.03,18.8,25.4,,00.0,0654.9,31.0
2021-12-17T21:35:00Z,00000200,01000000,0000.19,-000.07,0000.33,0000.49,-000.07,-000.07,-000.29,-000.05,-000.27,18.7,25.4,,00.0,0654.9,31.0
2021-12-17T21:36:00Z,00000200,01000000,-000.50,0000.20,0000.25,-000.47,-000.05,0000.26,0000.01,-000.46,0000.20,18.6,25.4,,00.0,0654.9,31.0
2021-12-17T21:37:00Z,00000200,01000000,0000.43,0000.06,0000.34,0000.37,0000.03,0000.03,0000.22,0000.34,0000.04,18.6,25.3,,00.0,0654.9,30.9
2021-12-17T21:38:00Z,00000200,01000000,-000.17,0000.39,0000.16,0000.21,-000.05,0000.35,-000.28,0000.28,-000.24,18.6,25.3,,00.0,0654.9,31.0
2021-12-17T21:39:00Z,00000200,01000000,0000.03,0000.04,0000.15,0000.06,-000.23,0000.22,0000.10,-000.17,0000.23,18.6,25.3,,00.0,0654.9,31.0
2021-12-17T21:40:00Z,00000200,01000000,-000.36,0000.15,0000.56,-000.09,0000.13,-000.24,-000.20,-000.22,0000.15,18.6,25.3,,00.0,0655.0,31.0
2021-12-17T21:41:00Z,00000200,01000000,0000.42,-000.39,0000.29,0000.69,0000.08,-000.16,0000.41,0000.13,0000.04,18.7,25.3,,00.0,0655.0,31.0
2021-12-17T21:42:00Z,00000200,01000000,-000.70,0000.10,0000.03,-000.15,-000.17,0000.24,-000.16,-000.03,-000.02,18.7,25.4,,00.0,0655.0,31.0
2021-12-17T21:43:00Z,00000200,01000000,0000.43,-000.05,0000.25,-000.53,-000.23,-000.21,0000.15,0000.28,-000.20,18.7,25.4,,00.0,0655.0,31.0
2021-12-17T21:44:00Z,00000200,01000000,0000.05,-000.05,-000.01,0000.33,0000.03,-000.05,-000.12,-000.49,-000.11,18.7,25.4,,00.0,0655.0,31.0
2021-12-17T21:45:00Z,00000200,01000000,0000.29,-000.10,0000.03,0000.17,0000.15,-000.22,0000.11,-000.14,0000.18,18.7,25.4,,00.0,0655.0,31.0
2021-12-17T21:46:00Z,00000200,01000000,0000.29,-000.02,0000.36,0000.16,0000.15,-000.03,-000.15,0000.40,-000.09,18.7,25.4,,00.0,0655.0,31.0
2021-12-17T21:47:00Z,00000200,01000000,0000.08,0000.19,-000.14,-000.04,-000.11,0000.02,0000.16,0000.01,0000.22,18.8,25.4,,00.0,0655.0,31.0
2021-12-17T21:48:00Z,00000200,01000000,-000.23,-000.13,-000.17,0000.08,0000.12,0000.15,-000.15,0000.23,0000.07,18.8,25.4,,00.0,0655.0,31.0
2021-12-17T21:49:00Z,00000200,01000000,-000.39,-000.08,-000.03,-000.45,0000.18,0000.04,0000.04,-000.28,-000.51,18.7,25.4,,00.0,0655.0,31.0
2021-12-17T21:50:00Z,00000200,01000000,-000.73,-000.06,-000.05,-000.51,0000.02,0000.11,-000.02,0000.04,0000.09,18.6,25.4,,00.0,0655.0,31.0
2021-12-17T21:51:00Z,00000200,01000000,0000.55,-000.04,0000.21,0000.91,0000.05,-000.32,-000.14,-000.19,-000.02,18.6,25.3,,00.0,0655.0,31.0
2021-12-17T21:52:00Z,00000200,01000000,-000.04,0000.04,0000.07,0000.75,-000.14,0000.29,-000.08,-000.13,0000.01,18.6,25.3,,00.0,0655.1,31.0
2021-12-17T21:53:00Z,00000200,01000000,-000.05,-000.22,0000.04,0000.73,-000.23,0000.25,0000.13,0000.37,0000.10,18.6,25.3,,00.0,0655.1,31.0
2021-12-17T21:54:00Z,00000200,01000000,0000.48,0000.04,0000.05,0000.55,-000.11,0000.10,0000.15,0000.08,-000.01,18.6,25.3,,00.0,0655.1,31.0
2021-12-17T21:55:00Z,00000200,01000000,-000.32,-000.23,0000.21,0000.62,-000.07,0000.03,-000.18,0000.07,-000.07,18.6,25.3,,00.0,0655.1,31.0
2021-12-17T21:56:00Z,00000200,01000000,0000.34,0000.17,0000.35,0000.62,-000.32,0000.02,0000.63,0000.02,0000.41,18.6,25.3,,00.0,0655.1,31.0
2021-12-17T21:57:00Z,00000200,41000000,,,,,,,0000.79,0001.22,0000.96,18.7,25.3,,00.0,0655.0,31.0
2021-12-17T21:58:00Z,00000200,61000000,,,,,,,-000.29,-000.56,-000.36,18.3,25.4,,00.0,0654.2,31.0
2021-12-17T21:59:00Z,00000200,21000000,,,,,,,-000.36,-000.44,-000.48,18.3,25.6,,00.0,0654.2,31.0
